sat.trackr.live / text

‹ back to catalog

STARLINK-33869

NORAD 63790 · 2025-091R

PAYLOAD ACTIVE UNKNOWN

§ Identity

Operator
Country
US
Launch date
2025-05-02
Launch site
AFETR
Launch vehicle
Mass (kg)
RCS (m²)

Purposes: comms

External: N2YO · Heavens-Above · Gunter

§ Orbital elements

Epoch: 2026-05-24T20:31:22.858752Z

Period
94.27 min
Inclination
43.0024°
Eccentricity
0.0001080
Mean motion
15.27594717 rev/d
Perigee alt
482.3 km
Apogee alt
483.7 km
Semi-major
6,861.1 km
B*
4.9164e-4
RAAN
342.1276°
Arg perigee
272.6378°
Mean anomaly
87.4350°
Rev number
6,050

§ Raw data

STARLINK-338691 63790U 25091R   26144.85512568  .00013297  00000+0  49164-3 0  99972 63790  43.0024 342.1276 0001080 272.6378  87.4350 15.27594717 60505

JSON: /api/v1/satellites/63790 · /tle

For live sub-satellite position, see the globe view (requires WebGL).

§ Visibility from observer

Set your observer location to see the next 7 days of passes ≥ 10°. The values pass through the URL so the page stays shareable.

No JS? Fill the form by hand. The geolocation button needs JavaScript.